Wind_Speed
29 29 28 28 28 29 29 29 30 30 30 30 31 32 33 33 34 35 35 34 35 36 37 37 37 37 38 39 41 41 42 42 43 43 43 43 44 43 43 42 42 41 41
30 30 29 29 29 29 29 29 29 30 30 30 31 32 33 34 34 35 35 36 36 36 37 37 36 37 38 39 41 41 42 43 43 43 44 45 45 45 43 43 42 42 42
30 30 30 30 29 29 29 29 29 30 30 30 31 32 33 34 34 35 35 36 36 36 37 36 36 37 38 39 41 42 42 43 43 45 46 46 46 45 45 44 45 44 43
30 30 29 29 29 29 29 29 30 30 31 31 32 32 32 33 33 34 34 35 35 36 37 36 36 37 38 39 41 42 43 43 43 45 46 46 46 46 46 46 46 45 43
30 30 29 29 29 29 29 29 30 31 31 31 31 31 31 32 33 33 34 35 35 36 37 36 36 37 38 39 40 42 43 44 45 46 46 46 47 47 46 45 44 45 45
30 30 30 30 29 29 29 29 30 30 31 31 31 30 31 32 32 33 33 34 35 36 36 35 35 36 38 39 41 41 42 43 44 44 45 45 46 46 46 46 45 45 45
31 31 30 30 30 29 29 29 29 30 31 31 30 30 30 31 32 33 33 34 35 35 36 36 36 36 38 39 40 40 40 41 42 43 44 44 44 45 46 46 45 46 45
32 32 31 30 30 30 29 29 29 30 31 31 30 31 31 31 31 32 33 34 34 35 36 36 36 36 36 37 38 39 39 39 40 42 43 44 44 45 47 47 47 46 46
32 32 31 30 30 30 30 29 29 30 30 31 30 31 31 31 32 32 33 33 34 35 36 37 36 35 35 36 37 38 39 39 40 40 41 43 44 45 46 47 48 48 48
34 33 32 31 30 30 30 29 29 30 30 31 31 32 32 32 32 33 33 34 35 36 36 37 37 37 36 37 38 39 39 39 40 40 41 42 44 44 46 47 48 48 48
34 33 33 32 32 32 31 30 31 31 31 31 32 33 33 32 33 33 33 34 35 36 36 36 37 37 37 37 38 39 38 39 39 41 42 44 44 45 45 47 48 48 48
35 34 33 32 32 32 32 32 32 32 32 32 32 33 33 33 33 33 34 34 35 35 36 37 37 37 37 37 37 38 38 39 40 41 42 42 43 43 45 46 47 47 47
36 35 34 33 32 33 33 33 32 33 33 33 33 33 33 34 34 34 34 34 34 34 35 36 36 37 36 37 37 38 39 40 40 40 41 41 42 42 42 43 45 45 46
37 35 35 34 34 34 34 34 33 33 33 33 33 33 33 34 34 34 34 35 35 35 35 35 35 36 36 36 37 38 39 40 40 40 41 42 41 42 42 42 43 44 45
37 36 35 34 34 34 34 35 34 34 34 33 34 34 34 34 34 34 35 35 35 35 36 36 36 36 36 36 37 37 38 39 40 41 41 42 42 41 42 42 43 44 44
37 36 35 35 35 34 34 35 34 34 34 33 34 34 35 35 35 35 35 35 35 35 35 35 35 35 36 36 36 36 37 38 39 40 40 41 42 42 42 42 42 43 43
39 38 37 35 35 34 34 34 34 34 34 34 35 35 35 35 35 35 35 35 34 34 34 34 33 33 34 34 35 36 36 37 38 38 39 40 41 42 42 42 42 42 42
39 38 37 36 35 35 34 33 33 34 34 34 34 34 34 34 34 34 34 34 33 32 32 32 32 32 32 34 34 35 35 36 36 37 38 39 40 40 41 41 41 41 41
39 38 37 36 35 35 35 34 33 33 33 33 33 33 33 33 33 32 32 32 32 31 31 31 31 31 32 32 33 35 35 35 36 36 37 38 38 39 39 40 40 40 41
39 38 37 36 36 36 35 35 34 34 33 33 32 32 32 32 31 31 31 31 30 31 31 31 31 32 32 32 33 34 34 34 34 35 36 36 37 38 39 40 41 41 42
37 37 36 36 35 36 35 35 34 34 33 32 31 31 31 30 30 30 30 30 30 30 30 30 31 31 32 32 32 33 34 34 34 35 35 36 37 38 39 40 41 41 42
36 36 35 35 35 35 35 35 34 33 33 32 32 31 30 30 30 30 29 29 30 30 30 29 29 30 30 31 31 32 33 34 34 34 35 36 36 37 38 39 40 40 40
34 35 35 35 35 35 35 34 33 33 32 32 31 31 30 29 29 29 29 29 29 30 29 29 30 30 30 31 31 31 32 33 34 34 34 35 35 36 36 37 37 38 38
33 33 34 34 34 34 34 34 33 33 32 31 31 31 30 29 29 29 28 28 28 28 29 29 29 29 30 30 31 31 32 32 33 34 34 34 35 35 35 36 37 37 38
31 32 32 32 32 32 32 32 32 32 31 30 30 30 29 28 28 28 28 28 28 28 28 29 29 29 29 29 30 31 31 32 32 32 33 33 34 35 35 35 36 37 38
30 30 30 31 31 31 31 30 30 30 30 29 29 29 29 28 28 27 27 27 27 27 28 29 29 29 29 30 30 31 31 31 32 32 32 33 33 34 35 36 36 37 37
Wind_Direction
271 270 269 268 269 269 268 266 264 262 260 259 258 257 256 255 255 255 256 256 257 259 260 259 258 258 255 252 248 249 248 247 246 245 245 246 246 245 246 247 247 248 249
271 270 271 270 269 267 266 265 264 263 262 260 259 258 257 257 257 257 257 257 259 260 260 259 259 257 255 252 249 249 247 246 247 246 246 246 246 247 248 249 248 248 248
272 271 271 272 272 270 267 266 264 263 262 261 261 260 259 259 259 258 259 259 259 260 261 260 260 257 254 253 251 249 248 248 247 246 245 246 246 248 248 248 249 248 246
273 273 273 273 273 271 268 266 265 265 264 263 262 262 260 260 260 259 260 261 260 261 262 261 260 258 257 255 252 250 251 250 248 247 247 247 248 248 248 249 250 250 249
272 272 273 273 272 271 269 267 266 265 265 264 263 263 262 261 261 261 262 262 261 263 264 263 260 258 258 257 255 254 254 253 252 251 249 249 248 248 248 248 249 250 251
270 271 271 272 272 271 269 268 267 266 266 266 264 264 264 264 262 262 263 263 264 264 263 264 262 260 259 258 257 255 255 255 254 253 252 252 250 248 248 248 248 249 250
270 270 270 271 272 271 269 268 267 266 266 266 266 266 266 265 264 264 265 265 265 265 264 264 264 262 260 259 258 256 257 255 255 254 253 253 252 251 250 249 250 250 250
270 270 270 270 270 270 268 267 266 266 265 265 266 266 266 265 265 264 265 266 266 265 265 266 266 264 262 262 260 257 257 256 256 254 254 253 253 253 252 251 252 251 251
269 269 270 271 270 269 268 268 266 265 265 265 265 266 267 265 264 264 264 266 266 266 267 266 266 266 265 262 261 259 258 257 255 255 254 253 252 253 254 253 254 254 252
268 269 269 270 269 269 268 267 266 265 265 264 265 266 266 266 266 266 266 267 267 266 266 266 266 266 266 264 262 261 260 258 257 256 255 254 253 253 255 255 255 255 255
268 268 268 269 269 268 267 265 265 264 264 264 264 264 265 266 267 267 267 267 268 267 267 267 266 266 266 264 261 261 259 258 256 255 255 256 255 253 255 255 255 255 256
268 267 267 267 268 267 266 265 264 264 264 264 263 264 265 267 267 268 267 268 268 267 267 268 268 266 265 263 260 259 258 256 255 254 255 255 254 253 255 255 255 256 257
266 267 267 267 267 267 266 265 264 264 264 265 264 265 266 267 268 268 269 270 270 269 268 269 268 265 264 263 261 260 258 256 255 254 254 254 254 254 255 256 257 257 258
266 266 266 265 266 266 265 264 264 264 265 265 265 265 267 268 269 269 271 271 271 271 270 269 268 265 264 263 261 260 257 256 256 255 255 255 256 256 257 258 258 258 259
264 264 264 264 265 265 264 264 264 265 265 265 265 266 267 268 269 270 271 271 271 271 271 270 268 265 264 263 262 260 258 257 257 256 256 256 257 258 258 259 259 261 261
261 262 262 263 263 263 263 263 264 265 266 267 266 267 267 268 269 270 271 271 271 271 270 269 267 264 264 263 262 261 260 259 257 256 256 256 256 256 258 260 261 262 263
259 259 260 262 262 262 262 262 263 264 266 267 267 268 268 269 269 270 270 271 271 270 268 266 265 263 262 263 262 261 261 260 259 258 256 255 256 256 258 259 262 263 264
257 258 260 261 261 262 261 261 262 264 266 268 268 268 269 270 271 271 270 270 271 268 267 266 265 263 262 262 262 261 261 260 260 259 258 257 257 257 258 259 261 263 263
257 257 258 260 261 261 262 261 262 264 266 268 268 267 269 269 270 270 270 270 268 267 267 267 266 265 263 262 262 261 263 263 261 260 260 260 259 259 259 260 262 263 263
257 257 258 259 259 260 261 261 262 264 266 268 267 268 268 269 270 270 270 269 268 267 267 267 267 265 264 264 264 263 263 263 262 261 260 261 261 262 262 262 263 264 265
255 256 257 258 259 259 259 261 263 264 265 267 267 268 269 269 270 270 269 268 268 267 267 266 266 266 265 265 265 264 263 263 263 262 262 262 262 263 265 266 267 267 267
256 256 257 257 258 258 259 260 262 264 264 265 266 268 269 270 270 270 269 268 267 265 264 265 265 266 267 267 266 264 263 264 265 264 264 264 265 266 268 269 270 269 269
257 257 257 256 257 258 259 259 261 262 263 264 265 267 268 269 269 269 268 267 266 264 263 264 265 266 266 266 267 265 265 265 267 268 267 267 266 268 269 271 272 272 273
257 258 257 256 256 258 259 260 260 261 263 264 265 266 267 267 268 267 266 266 265 264 263 265 265 265 266 267 268 267 267 267 267 268 268 269 268 269 271 273 274 274 275
258 258 256 254 255 256 258 259 259 260 260 262 264 265 266 266 266 265 264 264 264 263 265 265 265 266 267 268 268 268 268 269 269 269 270 270 271 271 272 274 275 276 276
258 258 256 255 255 256 257 257 258 258 258 261 263 264 265 264 263 262 262 262 263 264 265 266 266 266 266 268 269 269 269 269 269 270 271 273 274 273 273 274 274 275 275
Height
5708 5708 5709 5709 5709 5709 5709 5709 5709 5709 5710 5710 5711 5713 5715 5717 5720 5722 5724 5726 5728 5729 5731 5732 5733 5734 5736 5738 5741 5744 5748 5751 5754 5758 5761 5764 5767 5770 5773 5775 5778 5781 5783
5700 5701 5701 5701 5701 5701 5701 5701 5701 5702 5702 5703 5704 5706 5707 5709 5712 5714 5716 5718 5719 5721 5722 5723 5724 5725 5727 5729 5732 5734 5737 5741 5744 5748 5751 5754 5758 5760 5763 5766 5769 5772 5774
5693 5693 5693 5693 5694 5694 5694 5693 5693 5694 5695 5695 5696 5698 5700 5702 5704 5706 5707 5709 5710 5712 5713 5714 5715 5717 5718 5720 5723 5725 5728 5731 5734 5737 5740 5744 5748 5751 5754 5756 5759 5762 5765
5685 5685 5686 5686 5686 5686 5686 5686 5686 5687 5687 5688 5689 5690 5692 5694 5696 5697 5698 5700 5702 5703 5704 5705 5706 5708 5709 5711 5713 5715 5718 5720 5723 5726 5729 5733 5736 5740 5743 5746 5749 5751 5754
5677 5678 5678 5678 5678 5679 5679 5679 5679 5680 5680 5681 5682 5683 5684 5686 5687 5688 5690 5692 5693 5694 5694 5696 5697 5698 5700 5701 5704 5706 5708 5710 5713 5716 5718 5721 5725 5728 5732 5735 5739 5741 5744
5670 5670 5670 5670 5671 5671 5671 5672 5672 5672 5673 5673 5674 5675 5676 5677 5679 5680 5681 5683 5684 5684 5685 5686 5688 5689 5690 5692 5693 5695 5698 5700 5702 5704 5707 5710 5713 5717 5720 5724 5727 5730 5733
5661 5662 5662 5663 5663 5663 5663 5664 5664 5665 5665 5666 5666 5667 5668 5669 5670 5671 5672 5674 5675 5675 5676 5677 5678 5679 5680 5681 5683 5684 5687 5689 5691 5694 5696 5699 5702 5705 5708 5712 5715 5719 5722
5653 5653 5654 5654 5655 5655 5655 5656 5656 5656 5657 5658 5658 5659 5660 5660 5662 5663 5663 5664 5666 5666 5667 5667 5668 5669 5670 5671 5672 5674 5675 5677 5680 5682 5685 5688 5691 5693 5696 5700 5703 5706 5710
5644 5645 5645 5646 5646 5646 5647 5647 5648 5648 5649 5649 5650 5651 5651 5652 5653 5653 5654 5655 5656 5656 5657 5657 5658 5658 5659 5660 5661 5663 5665 5667 5669 5671 5674 5676 5679 5682 5684 5687 5690 5693 5697
5635 5636 5637 5637 5637 5638 5638 5639 5639 5639 5640 5641 5641 5642 5643 5643 5643 5644 5645 5645 5646 5646 5647 5647 5648 5648 5649 5649 5651 5652 5654 5655 5658 5660 5663 5666 5668 5670 5673 5675 5678 5680 5684
5625 5626 5627 5628 5628 5629 5629 5630 5630 5631 5631 5632 5633 5633 5634 5634 5634 5635 5635 5636 5636 5636 5636 5637 5637 5638 5638 5639 5640 5642 5644 5645 5648 5650 5652 5655 5657 5659 5661 5663 5666 5668 5671
5616 5617 5618 5618 5619 5619 5620 5621 5621 5622 5623 5623 5624 5624 5624 5625 5625 5625 5625 5626 5626 5626 5626 5626 5627 5628 5628 5629 5630 5632 5633 5635 5637 5639 5641 5643 5645 5648 5650 5652 5654 5657 5659
5606 5607 5608 5608 5609 5610 5610 5611 5612 5613 5613 5614 5614 5615 5615 5615 5616 5616 5616 5616 5616 5616 5616 5616 5617 5617 5618 5619 5620 5621 5623 5625 5626 5628 5630 5632 5634 5636 5638 5641 5643 5645 5647
5596 5597 5597 5598 5599 5600 5601 5602 5602 5603 5604 5604 5605 5605 5605 5606 5606 5606 5606 5606 5606 5606 5606 5606 5607 5607 5607 5608 5610 5611 5612 5614 5616 5618 5620 5622 5624 5626 5628 5630 5631 5633 5635
5586 5587 5587 5588 5589 5590 5591 5592 5592 5593 5594 5594 5595 5595 5596 5596 5596 5596 5596 5596 5596 5596 5596 5596 5596 5597 5597 5598 5599 5600 5602 5604 5606 5608 5610 5611 5613 5615 5617 5619 5620 5622 5623
5575 5576 5577 5578 5579 5580 5581 5582 5583 5583 5584 5584 5585 5585 5586 5586 5586 5586 5586 5586 5585 5585 5585 5585 5586 5586 5587 5588 5589 5590 5592 5594 5595 5597 5599 5601 5603 5604 5606 5608 5609 5611 5612
5564 5566 5567 5568 5569 5570 5571 5572 5573 5574 5574 5574 5575 5575 5575 5576 5576 5576 5576 5575 5575 5575 5575 5576 5576 5576 5577 5578 5579 5580 5582 5583 5585 5587 5588 5590 5592 5594 5595 5597 5598 5599 5600
5553 5555 5556 5558 5559 5560 5561 5562 5563 5564 5564 5565 5565 5565 5565 5565 5566 5566 5565 5565 5565 5565 5566 5566 5567 5567 5568 5569 5570 5571 5572 5574 5575 5576 5578 5580 5582 5583 5584 5586 5587 5588 5590
5542 5544 5546 5547 5549 5550 5551 5552 5553 5554 5554 5555 5555 5555 5555 5556 5556 5555 5556 5555 5556 5556 5557 5557 5558 5558 5559 5560 5560 5561 5562 5564 5565 5567 5568 5570 5571 5573 5574 5575 5577 5578 5578
5530 5532 5534 5536 5538 5539 5540 5542 5543 5544 5545 5545 5545 5545 5546 5546 5546 5546 5546 5546 5546 5547 5547 5548 5548 5549 5550 5550 5551 5552 5553 5555 5556 5557 5558 5560 5561 5562 5563 5564 5565 5567 5567
5519 5521 5524 5525 5527 5529 5530 5531 5533 5534 5535 5535 5536 5536 5536 5536 5536 5536 5536 5537 5537 5538 5538 5539 5540 5540 5541 5541 5542 5543 5544 5545 5546 5548 5549 5550 5550 5552 5552 5553 5554 5554 5555
5508 5511 5513 5515 5516 5518 5520 5521 5523 5524 5525 5525 5526 5527 5527 5527 5527 5527 5528 5528 5528 5529 5530 5531 5531 5532 5532 5533 5534 5534 5535 5536 5537 5538 5539 5540 5540 5541 5541 5542 5542 5543 5543
5498 5500 5502 5505 5506 5508 5510 5511 5513 5513 5514 5515 5516 5517 5518 5518 5519 5519 5519 5519 5520 5521 5521 5522 5523 5524 5524 5525 5525 5525 5526 5527 5528 5528 5529 5530 5530 5531 5531 5531 5531 5531 5531
5488 5490 5492 5494 5496 5498 5500 5501 5503 5504 5505 5506 5507 5508 5508 5509 5510 5510 5510 5511 5512 5512 5513 5514 5514 5515 5515 5516 5516 5517 5517 5518 5518 5519 5519 5520 5520 5520 5520 5520 5520 5520 5520
5479 5480 5482 5484 5486 5488 5490 5492 5493 5494 5496 5497 5498 5499 5499 5500 5501 5501 5502 5502 5503 5504 5505 5506 5506 5507 5507 5508 5508 5508 5509 5509 5509 5509 5510 5510 5510 5510 5510 5510 5510 5509 5509
5469 5470 5472 5474 5477 5479 5480 5482 5483 5485 5487 5488 5489 5490 5491 5491 5492 5493 5493 5494 5495 5495 5496 5496 5497 5498 5498 5499 5499 5499 5499 5499 5500 5500 5500 5500 5500 5500 5499 5499 5499 5499 5498